Погода в Гуагуа

Филиппины     14°58′44″N   120°36′56″E
темп.,
°C
ветер,
м/с
пор.,
м/с
влажн.,
%
обл.,
%
осадки,
мм/ч
давл.,
гПа
погр.,
м
24 июля, сб
сб2423:00+24зюз3593100 0.1 1005145
02:00+25юз41091100 0.1 1003509
05:00+25зюз51289100 0.7 1003735
08:00+26зюз71388100 1.3 1004983
11:00+27зюз81387100 2.9 10051049
14:00+27зюз81486100 5.8 10041081
17:00+26зюз71488100 3.4 1004903
20:00+25зюз61388100 5.7 1005675
25 июля, вс
вс2523:00+25зюз51290100 2.7 1007709
02:00+25зюз51290100 3.9 1005693
05:00+25зюз51190100 0.7 1005665
08:00+27зюз6128685 2.0 10061007
11:00+28зюз8148163 1.4 10071193
14:00+28зюз9147998 2.3 10061231
17:00+27зюз6118498 1.1 1005965
20:00+26зюз51187100 1.9 1007678
26 июля, пн
пн2623:00+26зюз41087100 0.3 1007589
02:00+25зюз5118871 0.9 1005653
05:00+25зюз51286100 0.3 1004677
08:00+27зюз6118197 0.7 10051059
11:00+28зюз71279100 0.7 10051065
14:00+28зюз71178100 1.4 10031100
17:00+27зюз61284100 1.0 10021069
20:00+26зюз51185100 1.5 1004641
27 июля, вт
вт2723:00+25зюз41088100 1.1 1005522
02:00+26зюз71385100 2.6 1003695
05:00+26зюз7138595 0.4 1003756
08:00+27зюз8148499 2.1 10041093
11:00+28зюз10158399 3.5 10041201
14:00+27зюз91586100 7.8 10021113
17:00+26зюз71488100 2.6 1002957
20:00+26зюз61489100 4.7 1003765
28 июля, ср
ср2823:00+26зюз61389100 3.6 1005679
02:00+25зюз61391100 6.2 1003708
05:00+25зюз51392100 2.8 1004673
08:00+25зюз61390100 3.8 1005717
11:00+26зюз71390100 0.8 1005830
14:00+26юз61392100 1.7 1004839
17:00+26юз51292100 2.4 1004787
20:00+25юз41092100 3.2 1006601